QPF
0.01 0.00 0.00 0.00 0.00 0.00 0.01 0.00 0.00 0.00 0.00 0.00 0.01 0.01 0.00 0.00 0.00 0.00 0.01 0.01 0.01 0.01 0.01 0.01 0.01 0.01 0.01 0.01 0.01 0.01 0.01 0.01 0.01 0.01 0.02 0.03 0.04 0.05 0.04 0.04 0.05 0.05 0.06 0.06
0.01 0.01 0.01 0.01 0.01 0.01 0.00 0.00 0.00 0.00 0.00 0.00 0.00 0.00 0.00 0.00 0.00 0.01 0.01 0.01 0.01 0.00 0.01 0.02 0.02 0.02 0.03 0.03 0.03 0.02 0.02 0.02 0.01 0.01 0.01 0.02 0.02 0.02 0.03 0.02 0.03 0.04 0.05 0.05
0.01 0.01 0.01 0.02 0.02 0.01 0.01 0.01 0.01 0.01 0.01 0.00 0.00 0.00 0.00 0.00 0.01 0.02 0.02 0.01 0.01 0.00 0.01 0.02 0.02 0.02 0.03 0.02 0.02 0.02 0.03 0.03 0.03 0.02 0.02 0.02 0.02 0.02 0.02 0.01 0.01 0.02 0.03 0.03
0.02 0.03 0.03 0.02 0.02 0.01 0.01 0.02 0.01 0.01 0.01 0.00 0.00 0.00 0.00 0.00 0.01 0.02 0.02 0.01 0.01 0.01 0.02 0.02 0.02 0.01 0.02 0.01 0.01 0.01 0.02 0.03 0.05 0.04 0.02 0.01 0.01 0.01 0.01 0.01 0.01 0.01 0.02 0.02
0.03 0.04 0.04 0.05 0.03 0.01 0.01 0.02 0.01 0.00 0.01 0.00 0.00 0.00 0.01 0.01 0.01 0.01 0.01 0.01 0.02 0.02 0.03 0.02 0.01 0.01 0.02 0.02 0.01 0.01 0.03 0.03 0.03 0.03 0.02 0.01 0.01 0.01 0.01 0.01 0.01 0.02 0.02 0.02
0.02 0.04 0.05 0.05 0.02 0.01 0.01 0.02 0.01 0.01 0.01 0.00 0.00 0.00 0.00 0.00 0.00 0.00 0.01 0.02 0.02 0.02 0.03 0.02 0.02 0.01 0.02 0.03 0.02 0.01 0.02 0.03 0.03 0.02 0.02 0.02 0.01 0.01 0.01 0.01 0.01 0.01 0.02 0.02
0.02 0.03 0.04 0.04 0.03 0.02 0.03 0.03 0.02 0.01 0.01 0.01 0.01 0.01 0.01 0.00 0.00 0.01 0.01 0.02 0.02 0.03 0.03 0.02 0.03 0.02 0.02 0.03 0.02 0.01 0.02 0.03 0.03 0.03 0.02 0.02 0.01 0.01 0.01 0.01 0.01 0.02 0.02 0.02
0.02 0.03 0.04 0.03 0.02 0.02 0.03 0.01 0.01 0.01 0.02 0.03 0.02 0.01 0.01 0.01 0.00 0.01 0.02 0.04 0.03 0.03 0.04 0.04 0.04 0.03 0.03 0.03 0.03 0.02 0.02 0.03 0.04 0.04 0.03 0.02 0.02 0.01 0.01 0.02 0.02 0.02 0.02 0.01
0.02 0.03 0.03 0.02 0.02 0.02 0.02 0.01 0.01 0.01 0.02 0.05 0.04 0.02 0.02 0.01 0.01 0.02 0.04 0.04 0.03 0.04 0.05 0.05 0.05 0.04 0.04 0.05 0.03 0.02 0.02 0.03 0.03 0.02 0.02 0.02 0.02 0.01 0.02 0.02 0.02 0.02 0.01 0.01
0.02 0.02 0.02 0.02 0.01 0.01 0.01 0.01 0.01 0.01 0.02 0.06 0.05 0.03 0.04 0.03 0.03 0.04 0.05 0.04 0.04 0.04 0.05 0.05 0.05 0.04 0.05 0.04 0.03 0.02 0.02 0.02 0.01 0.01 0.02 0.03 0.03 0.02 0.02 0.02 0.01 0.01 0.01 0.01
0.04 0.02 0.03 0.03 0.02 0.01 0.01 0.02 0.03 0.02 0.02 0.05 0.07 0.06 0.06 0.06 0.05 0.05 0.04 0.04 0.03 0.03 0.03 0.03 0.03 0.03 0.03 0.03 0.03 0.03 0.03 0.02 0.01 0.02 0.03 0.04 0.04 0.03 0.02 0.01 0.01 0.01 0.01 0.01
0.05 0.03 0.06 0.07 0.05 0.02 0.01 0.04 0.06 0.05 0.05 0.05 0.06 0.07 0.09 0.08 0.06 0.05 0.05 0.04 0.03 0.03 0.03 0.04 0.04 0.03 0.03 0.02 0.03 0.03 0.04 0.03 0.02 0.02 0.02 0.02 0.03 0.03 0.02 0.02 0.01 0.00 0.00 0.00
0.03 0.03 0.06 0.08 0.06 0.04 0.03 0.04 0.06 0.07 0.08 0.09 0.08 0.08 0.09 0.08 0.08 0.06 0.03 0.03 0.03 0.03 0.03 0.04 0.05 0.04 0.03 0.02 0.01 0.02 0.03 0.04 0.03 0.02 0.02 0.01 0.02 0.02 0.02 0.01 0.01 0.00 0.00 0.00
0.02 0.03 0.04 0.05 0.04 0.04 0.04 0.05 0.07 0.06 0.07 0.10 0.09 0.09 0.08 0.07 0.05 0.03 0.02 0.03 0.03 0.02 0.02 0.03 0.03 0.03 0.02 0.01 0.01 0.01 0.02 0.02 0.02 0.02 0.01 0.01 0.02 0.02 0.02 0.02 0.01 0.01 0.01 0.01
0.01 0.01 0.02 0.02 0.01 0.02 0.03 0.05 0.08 0.08 0.09 0.08 0.07 0.07 0.05 0.03 0.02 0.02 0.03 0.03 0.03 0.02 0.02 0.02 0.02 0.02 0.02 0.01 0.01 0.01 0.01 0.01 0.01 0.01 0.01 0.02 0.02 0.02 0.01 0.01 0.01 0.01 0.01 0.01
0.01 0.01 0.01 0.01 0.01 0.01 0.02 0.04 0.07 0.08 0.08 0.08 0.07 0.06 0.04 0.02 0.01 0.02 0.02 0.03 0.03 0.02 0.02 0.02 0.01 0.01 0.01 0.01 0.01 0.01 0.01 0.01 0.02 0.02 0.01 0.02 0.02 0.02 0.02 0.02 0.01 0.01 0.01 0.01
0.02 0.01 0.01 0.01 0.01 0.02 0.03 0.03 0.05 0.06 0.06 0.05 0.05 0.04 0.03 0.01 0.01 0.01 0.01 0.01 0.01 0.01 0.01 0.01 0.01 0.01 0.02 0.01 0.01 0.01 0.01 0.01 0.01 0.01 0.02 0.02 0.02 0.03 0.03 0.02 0.02 0.01 0.01 0.01
0.02 0.03 0.02 0.02 0.03 0.04 0.04 0.04 0.04 0.05 0.04 0.03 0.02 0.02 0.02 0.01 0.01 0.01 0.01 0.01 0.01 0.01 0.01 0.01 0.01 0.01 0.01 0.01 0.01 0.01 0.01 0.01 0.02 0.02 0.02 0.02 0.02 0.02 0.02 0.02 0.01 0.01 0.01 0.00
0.03 0.04 0.03 0.03 0.04 0.05 0.05 0.04 0.04 0.04 0.04 0.03 0.02 0.02 0.02 0.02 0.02 0.02 0.02 0.01 0.01 0.01 0.01 0.01 0.01 0.01 0.01 0.01 0.01 0.01 0.01 0.02 0.03 0.03 0.03 0.02 0.02 0.02 0.02 0.01 0.01 0.01 0.01 0.01
0.03 0.03 0.03 0.04 0.06 0.06 0.04 0.02 0.03 0.03 0.03 0.03 0.04 0.03 0.02 0.02 0.02 0.02 0.03 0.03 0.04 0.03 0.02 0.01 0.01 0.02 0.01 0.01 0.01 0.02 0.03 0.04 0.04 0.03 0.03 0.02 0.02 0.01 0.01 0.01 0.02 0.03 0.02 0.01
0.02 0.03 0.04 0.05 0.06 0.05 0.03 0.02 0.02 0.03 0.03 0.03 0.04 0.04 0.03 0.02 0.02 0.02 0.03 0.03 0.04 0.04 0.03 0.02 0.01 0.01 0.01 0.01 0.03 0.04 0.05 0.04 0.02 0.02 0.02 0.01 0.01 0.01 0.01 0.01 0.02 0.02 0.02 0.02
0.03 0.04 0.04 0.04 0.03 0.03 0.02 0.02 0.02 0.03 0.03 0.04 0.05 0.03 0.02 0.02 0.02 0.02 0.03 0.03 0.03 0.03 0.04 0.03 0.02 0.01 0.01 0.01 0.02 0.03 0.03 0.01 0.01 0.01 0.01 0.02 0.02 0.02 0.01 0.01 0.01 0.02 0.02 0.02
0.03 0.03 0.03 0.02 0.03 0.03 0.03 0.02 0.02 0.02 0.04 0.05 0.05 0.04 0.03 0.03 0.02 0.02 0.02 0.02 0.02 0.03 0.03 0.03 0.03 0.02 0.01 0.01 0.01 0.01 0.02 0.01 0.00 0.00 0.01 0.01 0.02 0.02 0.01 0.01 0.01 0.02 0.02 0.01
0.03 0.02 0.01 0.02 0.02 0.02 0.02 0.02 0.02 0.03 0.04 0.05 0.05 0.04 0.03 0.02 0.02 0.01 0.02 0.01 0.02 0.02 0.02 0.03 0.03 0.02 0.02 0.02 0.01 0.01 0.01 0.01 0.01 0.01 0.01 0.01 0.01 0.01 0.01 0.02 0.02 0.02 0.01 0.01
0.03 0.03 0.02 0.02 0.02 0.02 0.02 0.02 0.03 0.03 0.04 0.05 0.04 0.03 0.02 0.01 0.01 0.01 0.01 0.01 0.01 0.02 0.02 0.03 0.03 0.03 0.02 0.02 0.02 0.02 0.01 0.02 0.01 0.01 0.01 0.02 0.02 0.01 0.02 0.02 0.02 0.02 0.01 0.01
0.03 0.03 0.03 0.03 0.03 0.03 0.03 0.03 0.03 0.04 0.04 0.06 0.05 0.03 0.02 0.01 0.01 0.01 0.02 0.02 0.02 0.03 0.03 0.03 0.03 0.04 0.04 0.03 0.02 0.02 0.01 0.01 0.02 0.02 0.02 0.02 0.02 0.02 0.02 0.02 0.02 0.02 0.02 0.02
0.03 0.03 0.04 0.03 0.02 0.03 0.03 0.03 0.04 0.04 0.05 0.05 0.06 0.05 0.03 0.03 0.02 0.02 0.02 0.02 0.02 0.03 0.03 0.02 0.02 0.02 0.03 0.03 0.02 0.01 0.01 0.00 0.01 0.02 0.01 0.01 0.02 0.02 0.02 0.01 0.01 0.01 0.01 0.01
MSLP
1007.43 1005.87 1004.31 1002.86 1001.64 1000.73 1000.19 1000.02 1000.20 1000.71 1001.48 1002.44 1003.53 1004.67 1005.83 1006.96 1008.03 1009.04 1009.97 1010.83 1011.62 1012.38 1013.10 1013.80 1014.49 1015.16 1015.82 1016.45 1017.05 1017.59 1018.08 1018.51 1018.88 1019.21 1019.51 1019.79 1020.07 1020.36 1020.65 1020.93 1021.19 1021.42 1021.59 1021.69
1007.67 1006.07 1004.39 1002.77 1001.34 1000.20 999.43 999.07 999.12 999.55 1000.31 1001.33 1002.51 1003.78 1005.07 1006.31 1007.48 1008.54 1009.51 1010.38 1011.19 1011.95 1012.68 1013.42 1014.17 1014.92 1015.66 1016.39 1017.08 1017.70 1018.26 1018.74 1019.16 1019.51 1019.83 1020.13 1020.42 1020.73 1021.03 1021.34 1021.63 1021.87 1022.06 1022.17
1007.53 1005.94 1004.23 1002.51 1000.94 999.64 998.69 998.17 998.09 998.45 999.19 1000.23 1001.49 1002.86 1004.27 1005.63 1006.89 1008.04 1009.05 1009.96 1010.78 1011.55 1012.30 1013.06 1013.84 1014.65 1015.46 1016.26 1017.02 1017.71 1018.33 1018.87 1019.32 1019.70 1020.03 1020.33 1020.63 1020.94 1021.25 1021.57 1021.87 1022.13 1022.33 1022.46
1007.07 1005.53 1003.84 1002.11 1000.48 999.08 998.02 997.38 997.20 997.48 998.18 999.23 1000.54 1001.99 1003.50 1004.96 1006.33 1007.56 1008.64 1009.60 1010.45 1011.23 1012.00 1012.78 1013.58 1014.41 1015.26 1016.11 1016.92 1017.67 1018.33 1018.90 1019.38 1019.77 1020.11 1020.41 1020.70 1021.00 1021.30 1021.60 1021.90 1022.17 1022.38 1022.52
1006.40 1004.94 1003.32 1001.64 1000.02 998.60 997.49 996.78 996.52 996.74 997.39 998.43 999.75 1001.25 1002.83 1004.38 1005.83 1007.15 1008.31 1009.32 1010.21 1011.02 1011.81 1012.59 1013.40 1014.25 1015.12 1015.99 1016.83 1017.61 1018.30 1018.89 1019.38 1019.79 1020.12 1020.40 1020.67 1020.93 1021.20 1021.48 1021.76 1022.01 1022.23 1022.38
1005.65 1004.29 1002.77 1001.19 999.64 998.25 997.15 996.41 996.11 996.28 996.88 997.88 999.19 1000.70 1002.30 1003.91 1005.43 1006.81 1008.04 1009.11 1010.05 1010.90 1011.70 1012.50 1013.32 1014.17 1015.05 1015.92 1016.77 1017.56 1018.27 1018.87 1019.37 1019.77 1020.08 1020.34 1020.58 1020.80 1021.03 1021.27 1021.51 1021.74 1021.95 1022.11
1004.93 1003.68 1002.29 1000.83 999.40 998.10 997.04 996.32 996.00 996.12 996.67 997.61 998.87 1000.35 1001.95 1003.57 1005.12 1006.55 1007.83 1008.95 1009.93 1010.82 1011.66 1012.47 1013.30 1014.16 1015.03 1015.91 1016.76 1017.55 1018.26 1018.86 1019.35 1019.74 1020.04 1020.27 1020.47 1020.65 1020.84 1021.03 1021.24 1021.45 1021.64 1021.81
1004.30 1003.16 1001.90 1000.60 999.31 998.13 997.15 996.48 996.16 996.24 996.73 997.60 998.79 1000.20 1001.75 1003.34 1004.89 1006.33 1007.64 1008.80 1009.82 1010.75 1011.62 1012.46 1013.30 1014.16 1015.04 1015.91 1016.75 1017.54 1018.25 1018.85 1019.33 1019.71 1019.99 1020.20 1020.37 1020.52 1020.67 1020.83 1021.01 1021.19 1021.38 1021.55
1003.80 1002.75 1001.63 1000.47 999.34 998.29 997.42 996.81 996.52 996.58 997.01 997.80 998.90 1000.22 1001.68 1003.20 1004.71 1006.13 1007.44 1008.62 1009.68 1010.64 1011.54 1012.41 1013.27 1014.14 1015.02 1015.89 1016.74 1017.52 1018.21 1018.81 1019.29 1019.66 1019.93 1020.13 1020.28 1020.41 1020.53 1020.68 1020.84 1021.01 1021.20 1021.37
1003.42 1002.45 1001.44 1000.42 999.42 998.51 997.76 997.22 996.96 997.03 997.42 998.13 999.12 1000.34 1001.70 1003.14 1004.57 1005.95 1007.23 1008.41 1009.48 1010.47 1011.40 1012.30 1013.18 1014.07 1014.96 1015.83 1016.67 1017.44 1018.13 1018.72 1019.19 1019.55 1019.82 1020.01 1020.15 1020.28 1020.40 1020.54 1020.70 1020.89 1021.08 1021.28
1003.13 1002.21 1001.28 1000.36 999.49 998.70 998.05 997.60 997.40 997.47 997.84 998.49 999.41 1000.52 1001.78 1003.11 1004.46 1005.77 1007.02 1008.17 1009.24 1010.25 1011.20 1012.12 1013.02 1013.93 1014.82 1015.69 1016.52 1017.29 1017.97 1018.54 1019.00 1019.36 1019.62 1019.81 1019.95 1020.08 1020.21 1020.37 1020.55 1020.76 1020.99 1021.21
1002.93 1002.02 1001.12 1000.27 999.47 998.78 998.23 997.86 997.73 997.84 998.21 998.84 999.69 1000.73 1001.89 1003.13 1004.39 1005.63 1006.82 1007.94 1008.99 1009.99 1010.95 1011.88 1012.80 1013.71 1014.61 1015.48 1016.30 1017.05 1017.71 1018.26 1018.71 1019.05 1019.30 1019.49 1019.64 1019.78 1019.93 1020.11 1020.32 1020.56 1020.82 1021.08
1002.80 1001.86 1000.95 1000.11 999.35 998.73 998.26 997.98 997.91 998.08 998.49 999.12 999.95 1000.94 1002.03 1003.19 1004.37 1005.54 1006.67 1007.74 1008.76 1009.74 1010.69 1011.62 1012.55 1013.45 1014.35 1015.20 1016.00 1016.73 1017.37 1017.90 1018.32 1018.64 1018.88 1019.06 1019.20 1019.35 1019.52 1019.72 1019.95 1020.23 1020.53 1020.83
1002.77 1001.75 1000.79 999.92 999.17 998.57 998.16 997.96 997.98 998.22 998.68 999.35 1000.18 1001.15 1002.21 1003.31 1004.43 1005.53 1006.59 1007.61 1008.59 1009.53 1010.46 1011.37 1012.28 1013.17 1014.05 1014.88 1015.66 1016.36 1016.96 1017.46 1017.85 1018.15 1018.37 1018.53 1018.67 1018.82 1018.99 1019.20 1019.46 1019.76 1020.08 1020.42
1002.85 1001.73 1000.68 999.75 998.97 998.39 998.02 997.88 997.97 998.29 998.82 999.54 1000.41 1001.38 1002.42 1003.49 1004.55 1005.59 1006.59 1007.55 1008.47 1009.37 1010.26 1011.14 1012.01 1012.88 1013.73 1014.54 1015.28 1015.95 1016.52 1016.99 1017.35 1017.62 1017.82 1017.96 1018.09 1018.22 1018.38 1018.59 1018.86 1019.17 1019.51 1019.86
1003.07 1001.84 1000.69 999.69 998.86 998.27 997.92 997.82 997.98 998.37 998.98 999.75 1000.65 1001.64 1002.68 1003.71 1004.73 1005.71 1006.65 1007.55 1008.41 1009.26 1010.09 1010.93 1011.76 1012.59 1013.41 1014.18 1014.89 1015.53 1016.07 1016.51 1016.85 1017.10 1017.27 1017.40 1017.50 1017.62 1017.77 1017.97 1018.22 1018.52 1018.86 1019.22
1003.43 1002.11 1000.87 999.79 998.93 998.31 997.97 997.90 998.10 998.54 999.20 1000.01 1000.94 1001.94 1002.97 1003.98 1004.95 1005.88 1006.76 1007.59 1008.39 1009.17 1009.95 1010.74 1011.53 1012.31 1013.08 1013.82 1014.50 1015.11 1015.63 1016.05 1016.37 1016.60 1016.76 1016.87 1016.97 1017.07 1017.20 1017.37 1017.60 1017.88 1018.20 1018.55
1003.93 1002.55 1001.26 1000.13 999.23 998.59 998.24 998.17 998.39 998.86 999.53 1000.35 1001.29 1002.28 1003.28 1004.25 1005.18 1006.05 1006.87 1007.64 1008.38 1009.10 1009.83 1010.56 1011.29 1012.03 1012.76 1013.46 1014.11 1014.69 1015.19 1015.60 1015.91 1016.14 1016.30 1016.41 1016.49 1016.59 1016.70 1016.85 1017.05 1017.30 1017.59 1017.91
1004.56 1003.17 1001.87 1000.72 999.80 999.14 998.77 998.70 998.90 999.34 999.99 1000.79 1001.69 1002.64 1003.59 1004.51 1005.39 1006.21 1006.97 1007.68 1008.37 1009.04 1009.71 1010.39 1011.08 1011.77 1012.45 1013.11 1013.73 1014.28 1014.76 1015.15 1015.46 1015.69 1015.86 1015.98 1016.07 1016.16 1016.27 1016.41 1016.58 1016.80 1017.06 1017.34
1005.26 1003.93 1002.66 1001.54 1000.62 999.95 999.56 999.45 999.60 999.99 1000.57 1001.31 1002.13 1003.01 1003.89 1004.75 1005.56 1006.32 1007.04 1007.71 1008.35 1008.98 1009.61 1010.24 1010.88 1011.53 1012.16 1012.78 1013.35 1013.87 1014.32 1014.70 1015.00 1015.24 1015.41 1015.54 1015.65 1015.75 1015.87 1016.00 1016.16 1016.35 1016.58 1016.83
1006.00 1004.77 1003.58 1002.51 1001.63 1000.96 1000.54 1000.38 1000.46 1000.76 1001.24 1001.86 1002.59 1003.36 1004.16 1004.94 1005.69 1006.40 1007.07 1007.71 1008.32 1008.93 1009.52 1010.12 1010.72 1011.32 1011.90 1012.46 1012.98 1013.45 1013.86 1014.21 1014.50 1014.73 1014.92 1015.07 1015.19 1015.31 1015.44 1015.58 1015.73 1015.92 1016.12 1016.34
1006.73 1005.63 1004.56 1003.57 1002.73 1002.07 1001.63 1001.40 1001.39 1001.57 1001.93 1002.42 1003.02 1003.68 1004.37 1005.07 1005.76 1006.43 1007.07 1007.69 1008.29 1008.88 1009.46 1010.03 1010.59 1011.14 1011.67 1012.16 1012.62 1013.03 1013.38 1013.69 1013.95 1014.17 1014.35 1014.50 1014.65 1014.79 1014.93 1015.08 1015.25 1015.43 1015.62 1015.83
1007.40 1006.45 1005.50 1004.62 1003.83 1003.19 1002.72 1002.43 1002.32 1002.38 1002.60 1002.95 1003.41 1003.94 1004.53 1005.14 1005.77 1006.40 1007.03 1007.64 1008.24 1008.83 1009.40 1009.95 1010.48 1010.98 1011.45 1011.87 1012.25 1012.59 1012.88 1013.13 1013.34 1013.52 1013.69 1013.85 1014.00 1014.16 1014.32 1014.50 1014.68 1014.87 1015.06 1015.26
1007.96 1007.16 1006.35 1005.57 1004.85 1004.23 1003.73 1003.38 1003.17 1003.12 1003.20 1003.40 1003.72 1004.13 1004.61 1005.15 1005.72 1006.31 1006.92 1007.53 1008.14 1008.73 1009.30 1009.84 1010.34 1010.79 1011.20 1011.56 1011.86 1012.12 1012.34 1012.52 1012.68 1012.82 1012.96 1013.11 1013.27 1013.44 1013.62 1013.82 1014.02 1014.22 1014.42 1014.62
1008.37 1007.72 1007.04 1006.35 1005.71 1005.12 1004.61 1004.21 1003.92 1003.75 1003.71 1003.78 1003.97 1004.26 1004.63 1005.08 1005.59 1006.15 1006.74 1007.34 1007.95 1008.54 1009.10 1009.63 1010.11 1010.53 1010.89 1011.18 1011.42 1011.61 1011.76 1011.88 1011.98 1012.09 1012.20 1012.33 1012.49 1012.67 1012.87 1013.08 1013.30 1013.52 1013.73 1013.93
1008.63 1008.10 1007.54 1006.96 1006.38 1005.83 1005.33 1004.90 1004.54 1004.29 1004.14 1004.10 1004.16 1004.34 1004.61 1004.97 1005.41 1005.91 1006.46 1007.04 1007.63 1008.21 1008.77 1009.28 1009.74 1010.13 1010.46 1010.71 1010.90 1011.04 1011.14 1011.22 1011.28 1011.35 1011.45 1011.57 1011.72 1011.90 1012.11 1012.33 1012.56 1012.79 1013.01 1013.22
1008.74 1008.32 1007.86 1007.38 1006.88 1006.38 1005.91 1005.47 1005.08 1004.77 1004.53 1004.39 1004.35 1004.41 1004.58 1004.84 1005.19 1005.62 1006.10 1006.63 1007.19 1007.74 1008.27 1008.77 1009.21 1009.58 1009.89 1010.13 1010.30 1010.42 1010.50 1010.55 1010.61 1010.67 1010.75 1010.87 1011.02 1011.20 1011.41 1011.63 1011.87 1012.10 1012.33 1012.53
Thickness
5708 5712 5711 5709 5710 5711 5707 5707 5702 5707 5710 5713 5713 5714 5713 5711 5709 5707 5705 5702 5699 5697 5695 5693 5691 5689 5688 5687 5685 5683 5680 5678 5676 5673 5671 5669 5667 5665 5663 5661 5661 5659 5657 5655
5697 5705 5706 5704 5707 5707 5707 5707 5706 5706 5707 5715 5713 5712 5708 5706 5704 5702 5700 5698 5696 5694 5691 5689 5687 5686 5684 5683 5681 5679 5676 5674 5672 5669 5667 5665 5663 5661 5659 5657 5656 5655 5653 5652
5689 5700 5698 5694 5702 5703 5704 5707 5705 5700 5704 5706 5703 5702 5701 5700 5699 5697 5696 5694 5692 5690 5687 5685 5683 5682 5680 5678 5677 5675 5672 5670 5668 5665 5663 5661 5660 5658 5655 5654 5653 5651 5650 5648
5686 5683 5672 5697 5707 5705 5701 5701 5702 5700 5701 5700 5699 5700 5700 5699 5696 5693 5692 5690 5687 5685 5683 5681 5680 5678 5676 5675 5673 5670 5668 5666 5664 5661 5659 5658 5656 5654 5652 5651 5649 5648 5646 5644
5679 5677 5683 5693 5697 5696 5691 5691 5695 5693 5694 5693 5695 5694 5694 5694 5692 5690 5688 5685 5683 5681 5679 5678 5676 5674 5672 5670 5668 5666 5664 5662 5660 5659 5656 5654 5652 5650 5648 5646 5645 5644 5642 5640
5671 5665 5669 5682 5691 5696 5690 5682 5689 5687 5685 5685 5684 5682 5686 5687 5686 5684 5682 5679 5677 5676 5675 5672 5670 5669 5666 5664 5663 5661 5660 5658 5657 5655 5652 5650 5648 5646 5644 5642 5641 5641 5639 5637
5664 5663 5674 5678 5684 5685 5670 5671 5679 5680 5679 5677 5675 5677 5680 5679 5677 5676 5674 5673 5671 5670 5668 5666 5665 5663 5661 5660 5658 5658 5657 5654 5652 5650 5648 5646 5644 5641 5640 5639 5637 5636 5634 5633
5658 5656 5662 5671 5673 5666 5665 5670 5672 5672 5672 5670 5670 5670 5671 5670 5669 5668 5666 5665 5664 5662 5661 5660 5659 5658 5656 5655 5655 5653 5651 5649 5647 5645 5644 5643 5640 5638 5636 5634 5633 5632 5630 5629
5656 5655 5659 5663 5661 5662 5663 5661 5663 5664 5665 5663 5662 5662 5662 5661 5660 5660 5659 5658 5657 5656 5655 5655 5654 5653 5651 5651 5650 5648 5646 5644 5642 5641 5639 5638 5636 5635 5634 5632 5632 5632 5630 5629
5648 5652 5654 5655 5656 5657 5657 5657 5658 5659 5658 5657 5656 5656 5655 5655 5654 5653 5653 5652 5651 5650 5650 5649 5648 5648 5647 5646 5645 5643 5641 5640 5639 5638 5636 5635 5633 5633 5632 5632 5631 5630 5629 5628
5638 5643 5646 5648 5649 5650 5652 5654 5654 5653 5653 5651 5650 5649 5649 5648 5648 5647 5647 5646 5645 5644 5645 5645 5644 5643 5643 5642 5641 5638 5637 5636 5636 5635 5634 5632 5631 5630 5630 5630 5629 5625 5626 5625
5630 5635 5635 5638 5643 5645 5645 5645 5647 5647 5646 5646 5645 5644 5644 5643 5642 5642 5641 5640 5639 5639 5640 5640 5640 5639 5639 5638 5637 5634 5633 5633 5633 5633 5632 5631 5630 5628 5624 5623 5621 5618 5616 5616
5627 5631 5633 5635 5637 5638 5638 5640 5641 5641 5640 5640 5640 5640 5639 5637 5637 5636 5635 5634 5634 5635 5636 5636 5636 5635 5635 5634 5632 5630 5629 5629 5629 5630 5629 5629 5628 5627 5625 5620 5616 5614 5611 5610
5621 5623 5624 5628 5629 5631 5632 5634 5635 5635 5635 5635 5635 5634 5634 5632 5632 5631 5631 5631 5631 5631 5631 5632 5631 5631 5631 5630 5628 5627 5626 5625 5624 5625 5626 5626 5626 5625 5624 5622 5620 5618 5611 5606
5614 5617 5619 5622 5624 5625 5626 5626 5626 5627 5627 5628 5628 5627 5627 5627 5626 5627 5627 5627 5627 5627 5627 5626 5626 5625 5626 5625 5623 5623 5623 5623 5622 5623 5623 5623 5623 5622 5621 5620 5619 5618 5617 5610
5606 5609 5612 5614 5615 5617 5619 5619 5619 5619 5620 5620 5621 5621 5621 5621 5622 5622 5623 5623 5622 5622 5622 5621 5620 5620 5620 5620 5618 5618 5618 5616 5616 5618 5619 5619 5619 5618 5617 5617 5617 5616 5614 5612
5597 5599 5602 5605 5608 5610 5612 5613 5614 5614 5615 5615 5615 5616 5616 5616 5617 5617 5618 5619 5618 5618 5617 5617 5616 5616 5615 5615 5615 5616 5616 5615 5610 5614 5616 5616 5615 5615 5614 5614 5614 5613 5611 5608
5592 5595 5598 5600 5602 5604 5606 5607 5609 5610 5610 5611 5612 5611 5610 5611 5611 5612 5613 5614 5614 5613 5612 5612 5612 5611 5611 5611 5611 5613 5614 5614 5612 5611 5611 5612 5611 5611 5610 5610 5611 5609 5608 5604
5586 5589 5592 5594 5597 5598 5600 5601 5603 5605 5606 5607 5607 5606 5606 5606 5607 5608 5609 5609 5609 5608 5608 5608 5604 5607 5607 5607 5606 5608 5610 5610 5609 5608 5607 5605 5606 5607 5606 5607 5607 5605 5604 5601
5579 5582 5585 5588 5590 5592 5593 5594 5596 5598 5600 5601 5601 5601 5601 5602 5603 5603 5603 5604 5605 5605 5604 5603 5603 5603 5603 5603 5600 5606 5607 5606 5605 5604 5604 5604 5604 5603 5603 5603 5603 5601 5600 5598
5571 5574 5577 5580 5582 5584 5586 5587 5589 5590 5592 5594 5595 5595 5596 5597 5598 5598 5598 5599 5598 5598 5598 5597 5599 5600 5600 5598 5596 5603 5603 5602 5601 5600 5600 5600 5600 5599 5599 5599 5598 5596 5595 5594
5564 5567 5569 5572 5574 5576 5578 5580 5582 5584 5585 5586 5588 5590 5590 5591 5592 5592 5592 5593 5593 5590 5593 5596 5597 5594 5594 5593 5598 5599 5599 5598 5597 5597 5596 5595 5594 5594 5594 5594 5593 5592 5591 5590
5556 5559 5562 5565 5567 5568 5570 5572 5574 5576 5577 5579 5581 5583 5584 5585 5588 5588 5587 5588 5589 5585 5589 5591 5588 5585 5584 5590 5595 5595 5594 5594 5594 5593 5592 5591 5590 5590 5590 5589 5588 5588 5587 5585
5549 5552 5555 5559 5561 5562 5563 5565 5567 5568 5571 5573 5575 5576 5578 5579 5581 5583 5584 5582 5581 5580 5585 5583 5580 5580 5579 5588 5590 5591 5591 5590 5590 5589 5589 5588 5587 5586 5585 5584 5583 5583 5582 5580
5543 5546 5549 5552 5554 5557 5558 5559 5560 5562 5564 5567 5569 5570 5573 5574 5575 5577 5578 5578 5576 5576 5580 5579 5575 5575 5580 5585 5586 5586 5586 5585 5584 5584 5583 5582 5582 5581 5580 5579 5579 5578 5577 5576
5538 5540 5543 5544 5548 5550 5553 5555 5556 5556 5558 5560 5562 5564 5567 5569 5570 5572 5572 5573 5573 5572 5576 5577 5576 5574 5578 5579 5580 5579 5579 5578 5578 5578 5578 5577 5577 5576 5575 5574 5573 5573 5572 5571
5533 5535 5536 5540 5543 5545 5547 5549 5549 5550 5552 5554 5555 5557 5559 5562 5564 5565 5566 5568 5569 5570 5572 5573 5574 5573 5573 5572 5571 5571 5571 5571 5571 5572 5572 5572 5571 5570 5570 5568 5568 5567 5566 5566